Flag for United Kingdom Weather past 2 weeks in Manchester, England, United Kingdom

Now
57 °F

Passing clouds.


Feels Like: 57 °F
Forecast: 43 / 69 °F
Wind: 5 mph from North

Location: Manchester Airport

Current Time: Sep 1, 2014 at 11:24:04 PM

Latest Report: Sep 1, 2014 at 10:50 PM


Visibility: N/A

Pressure: 30.21 "Hg

Humidity: 77%

Dew point: 50 °F

Location of ManchesterLocation

Historic Weather in Manchester — Graph

°F

Manchester temperature yesterday

Maximum temperature yesterday: 66 °F (at 3:50 PM)
Minimum temperature yesterday: 54 °F (at 2:50 AM)
Average temperature yesterday: 59 °F

Past Weeks' High & Low Weather Summary

 TemperatureHumidityPressure
High68 °F (Aug 28, 2:50 PM)100% (Aug 18, 3:20 AM)30.21 "Hg (Aug 18, 3:20 AM)
Low43 °F (Aug 24, 5:20 AM)48% (Aug 19, 4:50 PM)29.59 "Hg (Aug 25, 6:20 PM)
Average56 °F81%29.90 "Hg
* Reported Aug 17 10:20 PM — Sep 1 10:20 PM, Manchester, Weather by CustomWeather, © 2014

Note: Actual official high and low records may vary slightly from our data, if they occured in-between our weather recording intervals... More about our weather records

Advertising

Manchester weather history for previous 24 hours

 ConditionsComfort  
Time TempWeatherWind HumidityBarometerVisibility
10:20 PM
Sep 1
57 °FPassing clouds.5 mph77%30.21 "HgN/A
9:20 PM57 °FPassing clouds.6 mph72%30.21 "HgN/A
8:50 PM57 °FPartly sunny.6 mph72%30.18 "HgN/A
8:20 PM59 °FPartly sunny.7 mph68%30.18 "HgN/A
7:50 PM59 °FPartly sunny.8 mph68%30.18 "HgN/A
7:20 PM59 °FScattered clouds.8 mph68%30.15 "HgN/A
6:50 PM61 °FScattered clouds.9 mph63%30.15 "HgN/A
6:20 PM63 °FScattered clouds.8 mph56%30.15 "HgN/A
5:20 PM63 °FPartly sunny.10 mph56%30.15 "HgN/A
4:50 PM63 °FPartly sunny.12 mph59%30.15 "HgN/A
4:20 PM61 °FPartly sunny.10 mph68%30.15 "HgN/A
3:50 PM61 °FPartly sunny.9 mph63%30.12 "HgN/A
3:20 PM63 °FPartly sunny.12 mph59%30.12 "HgN/A
2:50 PM63 °FPartly sunny.10 mph64%30.12 "HgN/A
2:20 PM63 °FPartly sunny.10 mph64%30.12 "HgN/A
1:50 PM63 °FPartly sunny.12 mph73%30.12 "HgN/A
1:20 PM64 °FPartly sunny.13 mph68%30.12 "HgN/A
12:50 PM64 °FPartly sunny.12 mph68%30.12 "HgN/A
12:20 PM63 °FPartly sunny.9 mph73%30.12 "HgN/A
11:50 AM63 °FBroken clouds.10 mph83%30.12 "HgN/A
11:20 AM59 °FBroken clouds.7 mph100%30.12 "HgN/A
10:50 AM61 °FBroken clouds.9 mph88%30.12 "HgN/A
10:20 AM61 °FBroken clouds.8 mph94%30.09 "HgN/A
9:50 AM59 °FBroken clouds.7 mph100%30.09 "HgN/A
9:20 AM59 °FPartly sunny.5 mph100%30.09 "Hg6 mi
8:50 AM59 °FPartly sunny.6 mph100%30.09 "Hg5 mi
8:20 AM59 °FDrizzle. Partly sunny.8 mph100%30.07 "Hg2 mi
7:50 AM59 °FDrizzle. Partly sunny.8 mph100%30.07 "Hg2 mi
7:20 AM59 °FLight rain. Broken clouds.6 mph100%30.07 "Hg1 mi
6:50 AM57 °FPartly cloudy.6 mph100%30.07 "Hg2 mi
6:20 AM57 °FFog.9 mph100%30.04 "Hg1 mi
5:50 AM57 °FLight rain. Mostly cloudy.8 mph100%30.04 "Hg1 mi
5:20 AM57 °FLight rain. Overcast.8 mph100%30.04 "Hg5 mi
4:50 AM57 °FLight rain. Mostly cloudy.7 mph100%30.04 "HgN/A
4:20 AM57 °FDrizzle. Overcast.7 mph100%30.04 "Hg2 mi
3:50 AM57 °FDrizzle. Mostly cloudy.7 mph94%30.07 "Hg2 mi
3:20 AM57 °FLight rain. Mostly cloudy.7 mph94%30.07 "HgN/A
2:50 AM57 °FPassing clouds.8 mph88%30.07 "HgN/A
2:20 AM55 °FPassing clouds.7 mph94%30.07 "HgN/A
1:50 AM55 °FPassing clouds.7 mph94%30.07 "HgN/A
1:20 AM55 °FCool.6 mph94%30.07 "HgN/A
12:50 AM55 °FCool.7 mph88%30.07 "HgN/A
12:20 AM55 °FCool.7 mph88%30.07 "HgN/A
11:50 PM
Aug 31
55 °FCool.8 mph88%30.07 "HgN/A
11:20 PM54 °FPassing clouds.7 mph88%30.07 "HgN/A
Weather by CustomWeather, © 2014

See weather overviewHow to use our weather pages